[[{"header":{"parameterUnit":"m.s-1","parameterCategory":1,"la1":30.2991,"la2":30.254,"lo1":-89.0895,"lo2":-89.0444,"dy":0.0017,"dx":0.0017,"nx":28,"ny":28,"refTime":"2025-08-08T21:00:00:Z","depth":0,"parameterNumber":2,"parameterNumberName":"U-component_of_WINDS"},"data":[0,0,0,0,0,0,0,0,0,0,0,0,0,0,0,0,0,0,0,0,0,0,0,0,0,0,0,0,0,0,0,0,0,0,0,0,0,0,0,0,0,0,0,0,0,0,0,0,0,0,0,0,0,0,0,0,0,0,-3.9189,-3.9191,0,-3.9323,-3.9325,-3.9326,-3.9284,-3.9282,-3.9279,-3.9276,-3.9409,-3.9415,-3.9421,0,0,0,0,0,0,0,0,0,0,0,0,0,-3.8893,-3.8899,-3.9189,-3.9191,-3.9192,-3.9323,-3.9325,-3.9327,-3.9285,-3.9281,-3.9278,-3.9275,-3.9407,-3.9414,-3.9422,0,0,0,0,0,0,0,0,0,0,0,0,0,-3.9024,-3.8901,-3.9189,-3.9187,-3.9189,-3.9323,-3.9325,-3.9327,-3.9286,-3.9281,-3.9277,-3.9273,-3.9405,-3.9414,-3.9423,-3.9565,0,0,-3.9451,-3.9455,0,0,0,0,0,0,0,0,-3.9017,-3.9035,-3.9186,-3.9188,-3.9189,-3.9283,-3.9269,-3.9407,-3.9287,-3.9249,-3.9276,-3.9271,-3.937,-3.9382,-3.9416,-3.9571,-3.9577,-3.9452,-3.9458,-3.9461,-3.9464,0,0,0,0,0,0,0,-3.9008,-3.9029,-3.9242,-3.9188,-3.919,-3.9179,-3.9193,-3.9295,-3.9331,-3.9252,-3.9249,-3.9266,-3.937,-3.9408,-3.9419,-3.9579,-3.9452,-3.946,-3.9466,-3.9469,-3.9858,-3.9863,0,0,0,0,0,0,-3.8998,-3.9022,-3.9238,-3.9246,-3.9091,-3.9188,-3.9203,-3.9257,-3.933,-3.9337,-3.9269,-3.9263,-3.9394,-3.9408,-3.9424,-3.9596,-3.9461,-3.947,-3.9475,-3.9853,-3.9859,-3.9864,0,0,0,0,0,0,-3.8992,-3.9018,-3.9232,-3.9133,-3.916,-3.9197,-3.9258,-3.9262,-3.9299,-3.9344,-3.9349,-3.9301,-3.9391,-3.9411,-3.9531,-3.96,-3.9474,-3.9483,-3.9848,-3.9855,-3.9862,-3.9942,0,0,0,0,0,0,-3.8984,-3.9016,-3.9071,-3.9135,-3.9165,-3.9338,-3.9262,-3.9268,-3.9316,-3.9309,-3.9375,-3.9381,-3.9389,-3.9517,-3.954,-3.9611,-3.949,-3.9842,-3.9851,-3.986,-3.9933,-3.9951,-3.9966,0,0,0,0,0,-3.8973,-3.9087,-3.9074,-3.91,-3.9235,-3.9342,-3.936,-3.9368,-3.9322,-3.9377,-3.9406,-3.9379,-3.9589,-3.953,-3.9555,-3.963,-3.9837,-3.9849,-3.9859,-3.9926,-3.9947,-3.9966,0,0,0,0,0,0,-3.9028,-3.9095,-3.9082,-3.9219,-3.9276,-3.9335,-3.9405,-3.939,-3.9459,-3.945,-3.9455,-3.947,-3.9594,-3.9623,-3.9557,-3.9772,-3.9706,-3.9723,-3.9748,-3.9769,-3.9785,-3.9776,-3.9498,0,0,0,0,0,-3.9057,-3.914,-3.9193,-3.9309,-3.9339,-3.9367,-3.9414,-3.9416,-3.9474,-3.9497,-3.9534,-3.959,-3.9669,-3.972,-3.9795,-3.9937,-3.9951,-4.0001,-4.0017,-4.003,-4.0045,-4.0123,-4.0146,-3.99,-3.99,-3.9899,0,0,-3.9116,-3.9162,-3.9214,-3.9322,-3.9365,-3.9451,-3.9387,-3.9479,-3.9543,-3.951,-3.9627,-3.9656,-3.9719,-3.9852,-3.9911,-3.988,-4.0116,-4.0044,-4.0054,-4.0062,-4.0137,-4.016,-4.0181,-3.9907,-3.9906,-3.9905,0,0,-3.9267,-3.9311,-3.9414,-3.9459,-3.9527,-3.9546,-3.957,-3.9633,-3.9652,-3.9769,-3.9747,-3.9821,-3.9956,-4.0003,-4.0044,-4.0215,-4.0194,-4.0239,-4.0325,-4.0401,-4.0421,-4.0438,-4.05,-4.0522,-4.0253,-4.0253,-4.0253,0,-3.9332,-3.9461,-3.9468,-3.9563,-3.9611,-3.9587,-3.9691,-3.9735,-3.9823,-3.9856,-3.982,-3.999,-4.0031,-4.0174,-4.0216,-4.025,-4.0278,-4.0232,-4.0418,-4.0435,-4.0451,-4.0511,-4.0534,-4.0258,-4.0257,-4.0257,-4.0256,0,-3.9537,-3.9627,-3.9701,-3.979,-3.9846,-3.9945,-3.9966,-4.0022,-4.0019,-4.0041,-4.0161,-4.0209,-4.0294,-4.0328,-4.0324,-4.0472,-4.045,-4.0416,-4.035,-4.048,-4.0536,-4.0558,-4.0265,-4.0263,-4.0262,-4.0261,0,0,-3.9727,-3.982,-3.9847,-3.9887,-3.9961,-4.003,-4.0127,-4.0212,-4.026,-4.0322,-4.0404,-4.052,-4.0489,-4.0536,-4.0537,-4.0605,-4.0739,-4.0562,-4.0564,-4.0594,-4.0905,-4.0932,-4.0958,-4.0725,-4.0729,-4.0733,-4.09,0,-3.9886,-4.006,-4.007,-4.0228,-4.0311,-4.029,-4.0375,-4.0429,-4.0452,-4.0525,-4.055,-4.0633,-4.0585,-4.0614,-4.068,-4.0709,-4.0801,-4.0696,-4.0802,-4.0805,-4.0788,-4.0987,-4.1015,-4.1171,-4.0922,-4.0926,-4.0928,0,-4.0095,-4.0166,-4.0332,-4.0396,-4.0431,-4.0507,-4.0586,-4.0656,-4.0717,-4.0729,-4.0783,-4.0776,-4.0875,-4.0806,-4.0944,-4.0872,-4.0916,-4.0936,-4.0943,-4.0953,-4.0875,-4.1004,-4.122,-4.1244,-4.0963,-4.096,-4.0957,0,-4.0219,-4.0355,-4.0473,-4.0508,-4.0584,-4.0639,-4.0673,-4.0729,-4.078,-4.0849,-4.0882,-4.096,-4.1003,-4.1064,-4.1078,-4.1026,-4.1216,-4.1148,-4.1229,-4.1229,-4.1271,-4.1268,-4.1499,-4.1297,-4.1297,-4.1297,-4.1296,0,-4.0397,-4.05,-4.053,-4.0602,-4.0717,-4.0727,-4.084,-4.087,-4.0921,-4.0998,-4.0983,-4.1056,-4.107,-4.1145,-4.1156,-4.127,-4.1289,-4.1301,-4.1303,-4.1304,-4.1302,-4.1333,-4.1323,-4.1303,-4.1301,-4.13,-4.1299,0,-4.0555,-4.058,-4.0707,-4.0769,-4.0787,-4.0869,-4.0922,-4.0991,-4.1013,-4.1111,-4.1135,-4.1169,-4.1257,-4.1277,-4.1381,-4.1389,-4.1524,-4.1514,-4.1504,-4.1503,-4.1585,-4.1577,-4.1843,-4.1879,-4.1654,-4.1656,-4.1657,0,-4.0667,-4.0746,-4.0818,-4.087,-4.0907,-4.099,-4.1042,-4.1054,-4.1109,-4.1185,-4.1245,-4.1332,-4.1403,-4.1545,-4.1579,-4.1659,-4.1652,-4.1739,-4.1663,-4.1662,-4.1655,-4.165,-4.1659,-4.1754,-4.1757,-4.1758,-4.176,0,-4.0865,-4.0873,-4.095,-4.1031,-4.1094,-4.1159,-4.122,-4.1262,-4.1283,-4.1345,-4.1437,-4.1491,-4.1599,-4.1686,-4.1766,-4.18,-4.1784,-4.1784,-4.1807,-4.1809,-4.18,-4.1807,-4.1545,-4.1778,-4.1776,-4.1775,-4.1774,-4.1773,-4.1004,-4.1074,-4.1136,-4.1222,-4.127,-4.1327,-4.1396,-4.1427,-4.1504,-4.1594,-4.1596,-4.1695,-4.1755,-4.1861,-4.19,-4.1978,-4.1951,-4.1984,-4.1993,-4.2001,-4.201,-4.1787,-4.1992,-4.1992,-4.1992,-4.1991,-4.1991,0,-4.1202,-4.1241,-4.132,-4.1407,-4.1475,-4.1455,-4.1522,-4.1579,-4.1668,-4.1725,-4.1795,-4.19,-4.1984,-4.2025,-4.2109,-4.2163,-4.2158,-4.2185,-4.2181,-4.219,-4.2028,-4.2001,-4.2188,-4.2188,-4.2188,-4.2188,-4.2187,-4.2187,-4.1313,-4.143,-4.1446,-4.1587,-4.1625,-4.1724,-4.1764,-4.1817,-4.1863,-4.1982,-4.2052,-4.2079,-4.2129,-4.2217,-4.2293,-4.2303,-4.2335,-4.2365,-4.2372,-4.2221,-4.2201,-4.2182,-4.2155,-4.2372,-4.2372,-4.2526,-4.2528,-4.2529]},{"header":{"parameterUnit":"m.s-1","parameterCategory":1,"la1":30.2991,"la2":30.254,"lo1":-89.0895,"lo2":-89.0444,"dy":0.0017,"dx":0.0017,"nx":28,"ny":28,"refTime":"2025-08-08T21:00:00:Z","depth":0,"parameterNumber":3,"parameterNumberName":"V-component_of_WINDS"},"data":[0,0,0,0,0,0,0,0,0,0,0,0,0,0,0,0,0,0,0,0,0,0,0,0,0,0,0,0,0,0,0,0,0,0,0,0,0,0,0,0,0,0,0,0,0,0,0,0,0,0,0,0,0,0,0,0,0,0,-0.5524,-0.5524,0,-0.5522,-0.5522,-0.5522,-0.5477,-0.5476,-0.5475,-0.5474,-0.5475,-0.5476,-0.5477,0,0,0,0,0,0,0,0,0,0,0,0,0,-0.5493,-0.5494,-0.5524,-0.5524,-0.5524,-0.5522,-0.5522,-0.5522,-0.5477,-0.5476,-0.5474,-0.5473,-0.5475,-0.5476,-0.5477,0,0,0,0,0,0,0,0,0,0,0,0,0,-0.55,-0.5494,-0.5524,-0.5501,-0.5499,-0.5522,-0.5522,-0.5522,-0.5477,-0.5476,-0.5474,-0.5472,-0.5474,-0.5476,-0.5478,-0.5523,0,0,-0.5483,-0.5483,0,0,0,0,0,0,0,0,-0.55,-0.5502,-0.5505,-0.5503,-0.5501,-0.5498,-0.5511,-0.5522,-0.5478,-0.5486,-0.5474,-0.5472,-0.5484,-0.5485,-0.5489,-0.5523,-0.5523,-0.5483,-0.5484,-0.5485,-0.5485,0,0,0,0,0,0,0,-0.55,-0.5501,-0.5523,-0.5505,-0.5502,-0.5492,-0.5491,-0.5513,-0.5495,-0.5485,-0.5482,-0.5482,-0.5483,-0.5487,-0.5488,-0.5523,-0.5483,-0.5484,-0.5485,-0.5486,-0.5594,-0.5596,0,0,0,0,0,0,-0.5502,-0.5501,-0.5523,-0.5523,-0.5496,-0.5494,-0.5493,-0.5501,-0.5495,-0.5492,-0.5483,-0.548,-0.5485,-0.5486,-0.5488,-0.5541,-0.5485,-0.5486,-0.5487,-0.5592,-0.5594,-0.5596,0,0,0,0,0,0,-0.5501,-0.5504,-0.5523,-0.5511,-0.5513,-0.5497,-0.5505,-0.5501,-0.5505,-0.5493,-0.549,-0.5491,-0.5484,-0.5486,-0.5514,-0.554,-0.5487,-0.5488,-0.559,-0.5593,-0.5595,-0.5646,0,0,0,0,0,0,-0.55,-0.5504,-0.552,-0.5512,-0.5514,-0.5549,-0.5507,-0.5503,-0.5508,-0.5503,-0.5499,-0.5497,-0.5482,-0.5512,-0.5516,-0.5541,-0.549,-0.5587,-0.5591,-0.5594,-0.5642,-0.565,-0.5657,0,0,0,0,0,-0.55,-0.5536,-0.5521,-0.5524,-0.5534,-0.555,-0.5551,-0.5533,-0.551,-0.5527,-0.5519,-0.5497,-0.5536,-0.5515,-0.5519,-0.5546,-0.5586,-0.559,-0.5594,-0.5638,-0.5648,-0.5657,0,0,0,0,0,0,-0.5549,-0.5534,-0.5518,-0.5553,-0.5553,-0.5543,-0.5563,-0.5544,-0.5552,-0.5547,-0.5525,-0.5524,-0.5556,-0.5554,-0.553,-0.5589,-0.5557,-0.5562,-0.559,-0.5599,-0.5606,-0.5607,-0.5491,0,0,0,0,0,-0.5564,-0.5577,-0.5564,-0.5596,-0.5596,-0.558,-0.5586,-0.5572,-0.5572,-0.5572,-0.5566,-0.5568,-0.558,-0.5589,-0.56,-0.5641,-0.564,-0.5661,-0.5669,-0.5675,-0.568,-0.5702,-0.5711,-0.561,-0.561,-0.561,0,0,-0.5595,-0.5588,-0.5599,-0.5605,-0.5604,-0.562,-0.558,-0.5599,-0.561,-0.5575,-0.5601,-0.5597,-0.5598,-0.5632,-0.5647,-0.5631,-0.5708,-0.568,-0.5686,-0.5687,-0.5707,-0.5717,-0.5725,-0.5613,-0.5612,-0.5612,0,0,-0.566,-0.5656,-0.5681,-0.568,-0.5678,-0.5666,-0.5673,-0.5665,-0.5661,-0.5686,-0.566,-0.5674,-0.5696,-0.5697,-0.5701,-0.5765,-0.5746,-0.577,-0.581,-0.5831,-0.5839,-0.5846,-0.587,-0.5878,-0.5774,-0.5775,-0.5775,0,-0.5699,-0.572,-0.5697,-0.5717,-0.5721,-0.5688,-0.5715,-0.5715,-0.5717,-0.5721,-0.5703,-0.5729,-0.5728,-0.5762,-0.5778,-0.5781,-0.5789,-0.577,-0.5839,-0.5846,-0.5853,-0.5875,-0.5884,-0.5777,-0.5777,-0.5777,-0.5777,0,-0.5769,-0.5784,-0.5805,-0.5806,-0.5813,-0.5836,-0.5818,-0.5827,-0.5812,-0.5802,-0.5829,-0.5825,-0.5835,-0.5842,-0.5828,-0.5875,-0.5865,-0.5843,-0.5811,-0.5866,-0.5886,-0.5894,-0.5782,-0.5781,-0.578,-0.5779,0,0,-0.5866,-0.5853,-0.5861,-0.5861,-0.5856,-0.5868,-0.589,-0.5897,-0.5906,-0.5909,-0.5927,-0.5946,-0.5926,-0.593,-0.5915,-0.5934,-0.5986,-0.591,-0.591,-0.5925,-0.6038,-0.6055,-0.6065,-0.5972,-0.5974,-0.5975,-0.6038,0,-0.5928,-0.5964,-0.5944,-0.5982,-0.5996,-0.5965,-0.5984,-0.5984,-0.5975,-0.5987,-0.5978,-0.5992,-0.5964,-0.5967,-0.5983,-0.5976,-0.6008,-0.5971,-0.599,-0.5991,-0.5992,-0.6075,-0.6093,-0.6153,-0.6046,-0.6047,-0.6048,0,-0.6007,-0.6011,-0.605,-0.6042,-0.6047,-0.6064,-0.607,-0.6081,-0.608,-0.6072,-0.6077,-0.6058,-0.6079,-0.6047,-0.6077,-0.6052,-0.6058,-0.6056,-0.6058,-0.606,-0.6024,-0.6081,-0.6172,-0.6181,-0.606,-0.6059,-0.6059,0,-0.6074,-0.609,-0.6115,-0.6116,-0.6107,-0.612,-0.6117,-0.6113,-0.6119,-0.6125,-0.6128,-0.6137,-0.6141,-0.6149,-0.6133,-0.611,-0.6165,-0.6131,-0.6161,-0.6162,-0.6175,-0.6175,-0.627,-0.6178,-0.6178,-0.6178,-0.6178,0,-0.6147,-0.6173,-0.6145,-0.6161,-0.6189,-0.6166,-0.6195,-0.6189,-0.6186,-0.6201,-0.6175,-0.619,-0.6167,-0.618,-0.6168,-0.6195,-0.6197,-0.6193,-0.619,-0.6196,-0.6197,-0.6201,-0.6197,-0.618,-0.618,-0.6179,-0.6179,0,-0.6227,-0.621,-0.6236,-0.6224,-0.6222,-0.6243,-0.6234,-0.6249,-0.6238,-0.6258,-0.6261,-0.6245,-0.6259,-0.6243,-0.6256,-0.6248,-0.6285,-0.6275,-0.6285,-0.6283,-0.6314,-0.6312,-0.6416,-0.6429,-0.6328,-0.6329,-0.633,0,-0.6275,-0.6294,-0.6284,-0.6291,-0.6289,-0.6302,-0.6307,-0.6285,-0.6293,-0.6292,-0.6307,-0.6318,-0.6326,-0.635,-0.6341,-0.635,-0.6341,-0.6377,-0.6343,-0.6348,-0.6343,-0.6342,-0.6344,-0.6384,-0.6386,-0.6387,-0.6387,0,-0.6363,-0.6353,-0.6361,-0.6366,-0.6373,-0.6377,-0.6379,-0.6386,-0.6363,-0.6373,-0.6386,-0.6392,-0.6404,-0.6416,-0.6423,-0.6421,-0.6401,-0.6398,-0.6406,-0.6413,-0.6418,-0.6417,-0.6305,-0.6396,-0.6395,-0.6395,-0.6394,-0.6394,-0.6429,-0.6444,-0.6439,-0.6449,-0.6448,-0.645,-0.6463,-0.6454,-0.6464,-0.6471,-0.6458,-0.6474,-0.6473,-0.648,-0.648,-0.6493,-0.6478,-0.6489,-0.6492,-0.6495,-0.65,-0.6415,-0.6494,-0.6494,-0.6494,-0.6494,-0.6493,0,-0.6515,-0.651,-0.652,-0.6522,-0.653,-0.6508,-0.6509,-0.6518,-0.6532,-0.6532,-0.654,-0.6555,-0.6566,-0.6557,-0.6566,-0.6579,-0.657,-0.6582,-0.6582,-0.6582,-0.6513,-0.6506,-0.6589,-0.6589,-0.6589,-0.6589,-0.6589,-0.6589,-0.6561,-0.6586,-0.6576,-0.66,-0.6595,-0.661,-0.6612,-0.6614,-0.6613,-0.6631,-0.664,-0.6633,-0.6629,-0.6638,-0.6648,-0.6645,-0.665,-0.6666,-0.666,-0.6596,-0.6587,-0.6578,-0.6571,-0.6667,-0.6667,-0.6728,-0.6729,-0.6729]}]]